TIME,DELAY(SENSOR),PRES,OXYGEN,RAWTEMP,T(OPTODE),TCPHASE,FLUOR,BETA(BETA700),BETA(BETA412),BETA(BETA440),CDOM,C(CSC),ED(ED412.20),ED(ED444.00),ED(ED489.60),ED(ED554.30),LU(LU412.10),LU(LU443.90),LU(LU489.70),LU(LU554.70),COMP,TILTX,TILTY,CHECK
1354935994,5811,904.9500122070312000,32.5723190307617200,559.2208251953125000,4.5100440979003910,56.6613197326660160,54,99,100,78,82,15543,0,0,0,0,2147123638,2147769974,2147574848,2147572589,603,2,13,45098
1354939590,5808,966.4400024414062000,39.3202590942382800,566.4832153320312000,4.2847962379455570,55.6783294677734400,55,100,101,77,82,15544,0,0,0,0,2147123913,2147772553,2147570779,2147568859,1728,2,13,38091
1354943190,5810,984.5499877929688000,40.6314392089843750,567.7929077148438000,4.2441267967224120,55.4968910217285160,55,99,101,78,82,15546,0,0,0,0,2147121042,2147773778,2147576777,2147567844,95,3,13,49837
1354946790,5809,993.9299926757812000,40.8787612915039060,568.6791992187500000,4.2165989875793460,55.4695892333984400,54,98,101,77,82,15545,0,0,0,0,2147124278,2147769856,2147576694,2147568283,229,2,13,17948
1354950390,5810,989.1199951171875000,40.8508796691894500,570.2014160156250000,4.1693038940429690,55.4940299987793000,55,99,100,78,83,15543,0,0,0,0,2147127716,2147774701,2147569664,2147568594,141,2,13,33585
1354953990,5811,989.7700195312500000,40.4854202270507800,570.5093994140625000,4.1597309112548830,55.5488090515136700,54,100,100,78,82,15542,0,0,0,0,2147124105,2147772105,2147581019,2147568740,3239,2,13,35993
1354957590,5810,999.4000244140625000,40.3224105834960940,570.2960815429688000,4.1663589477539060,55.5677108764648440,55,99,101,78,81,15540,0,0,0,0,2147124608,2147772882,2147578605,2147569216,3452,2,13,59521
1354961190,5812,999.8200073242188000,40.2053298950195300,569.3596801757812000,4.1954569816589355,55.5766906738281250,55,98,101,77,80,15540,0,0,0,0,2147122816,2147772918,2147575433,2147567341,2970,3,13,7027
1354964790,5809,991.4699707031250000,40.7308197021484400,570.8494873046875000,4.1491599082946780,55.5173988342285160,56,98,100,77,83,15541,0,0,0,0,2147125842,2147770450,2147579913,2147570560,80,2,13,34607
1354968390,5810,992.7000122070312000,41.1957015991210940,571.3801269531250000,4.1326680183410645,55.4569892883300800,55,100,100,77,82,15541,0,0,0,0,2147127524,2147770386,2147572754,2147566427,3584,2,13,53760
1354971990,5807,992.2100219726562000,41.2211799621582000,571.3275756835938000,4.1342959403991700,55.4459991455078100,54,99,100,78,82,15540,0,0,0,0,2147121810,2147771913,2147574747,2147567954,406,3,13,56735
1354975590,5811,996.9500122070312000,40.9432716369628900,571.3883056640625000,4.1324100494384770,55.4859313964843750,55,97,100,77,81,15538,0,0,0,0,2147123529,2147775808,2147573686,2147569444,240,2,13,39347
1354979190,5811,999.3699951171875000,40.9529609680175800,571.0949096679688000,4.1415309906005860,55.4851417541503900,55,96,100,78,83,15540,0,0,0,0,2147126061,2147772809,2147576164,2147566683,3340,2,13,25838
1354982790,5811,1001.5200195312500000,41.3754310607910160,570.8624267578125000,4.1487579345703125,55.4245414733886700,55,98,99,78,82,15538,0,0,0,0,2147122733,2147770459,2147576850,2147571062,3321,2,13,20990
1354986390,5810,994.6500244140625000,41.1622390747070300,571.7965698242188000,4.1197190284729000,55.4648704528808600,55,97,99,79,82,15535,0,0,0,0,2147121362,2147770249,2147575990,2147569846,3258,2,13,19748
1354989990,5807,995.6500244140625000,41.8694114685058600,572.2105712890625000,4.1068458557128910,55.3638000488281250,54,98,102,77,82,15492,0,0,0,0,2147124608,2147769627,2147580251,2147567460,3591,3,13,39308
1354993590,5809,1004.6199951171875000,41.8595886230468750,571.6691284179688000,4.1236820220947270,55.3617897033691400,55,97,100,78,82,15495,0,0,0,0,2147121206,2147773092,2147576237,2147567542,3547,2,13,33093
1354997190,5810,1007.5300292968750000,41.3471107482910160,571.2653808593750000,4.1362318992614750,55.4306297302246100,55,98,100,77,82,15490,0,0,0,0,2147122459,2147774381,2147576978,2147566573,3142,2,13,57543
1355000790,5811,1000.9699707031250000,41.1636505126953100,571.7379760742188000,4.1215381622314450,55.4610404968261700,54,97,100,79,81,15491,0,0,0,0,2147121033,2147769334,2147575853,2147568045,3186,2,13,37261
1355004390,5810,1001.7600097656250000,41.3793716430664060,571.4373779296875000,4.1308860778808590,55.4245796203613300,55,98,99,78,83,15492,0,0,0,0,2147124809,2147770797,2147574162,2147568265,3067,2,13,21377
1355007990,5809,1003.4699707031250000,41.6865692138671900,571.8251953125000000,4.1188278198242190,55.3887290954589840,55,99,99,78,82,15484,0,0,0,0,2147125046,2147768384,2147575661,2147569060,3564,2,13,58929
1355011590,5809,991.7199707031250000,41.7963714599609400,572.2949829101562000,4.1042208671569820,55.3752098083496100,54,100,100,79,82,15484,0,0,0,0,2147124324,2147776539,2147572214,2147569124,313,3,13,38651
1355015190,5809,998.8400268554688000,42.2305107116699200,572.7305297851562000,4.0906767845153810,55.3140182495117200,54,98,100,78,82,15486,0,0,0,0,2147124169,2147773540,2147571602,2147569837,643,2,13,58842
1355018790,5811,1006.5000000000000000,41.8145294189453100,571.8480834960938000,4.1181159019470215,55.3646888732910160,55,101,101,78,83,15479,0,0,0,0,2147127981,2147772187,2147573284,2147568740,310,2,13,7302
1355022390,5809,1009.1400146484375000,41.4030418395996100,571.4520263671875000,4.1304302215576170,55.4249114990234400,54,98,100,78,82,15482,0,0,0,0,2147124452,2147774921,2147575021,2147569993,3380,2,13,48683
1355025990,5810,1002.5800170898438000,41.0286598205566400,571.3618164062500000,4.1332359313964840,55.4778709411621100,54,100,101,79,82,15484,0,0,0,0,2147124059,2147774080,2147570066,2147569481,93,2,13,35514
1355029590,5811,1003.6799926757812000,41.1600799560546900,571.6380004882812000,4.1246471405029300,55.4595298767089840,55,98,101,77,82,15484,0,0,0,0,2147123456,2147769014,2147572864,2147574573,128,2,13,6829
1355033190,5808,1012.9199829101562000,41.4364318847656250,571.3671264648438000,4.1330699920654300,55.4220695495605500,54,98,101,77,81,15481,0,0,0,0,2147120173,2147771099,2147573997,2147568603,3408,2,13,8510
1355036790,5810,1006.3800048828125000,41.3758583068847660,571.4470825195312000,4.1305809020996090,55.4290199279785160,55,98,101,78,82,15481,0,0,0,0,2147121718,2147770112,2147574390,2147569408,3520,2,13,34158
1355040390,5810,1002.4500122070312000,41.2219810485839840,571.5568237304688000,4.1271739006042480,55.4541511535644500,55,99,100,78,81,15481,0,0,0,0,2147120036,2147771748,2147576923,2147567963,86,3,13,38095
1355043990,5809,1000.2600097656250000,41.1712608337402340,571.7426757812500000,4.1213908195495605,55.4577484130859400,55,99,99,78,82,15482,0,0,0,0,2147121417,2147774153,2147573979,2147567680,475,2,13,29879
1355047590,5811,1005.0100097656250000,41.3741912841796900,571.8690795898438000,4.1174621582031250,55.4286384582519500,55,97,100,78,83,15483,0,0,0,0,2147124699,2147771913,2147571675,2147570450,263,3,13,55319
1355051190,5808,1009.8400268554688000,41.2005500793457000,571.9030761718750000,4.1164050102233890,55.4563407897949200,54,101,99,78,82,15482,0,0,0,0,2147123510,2147774592,2147574601,2147570441,127,3,13,23436
1355054790,5811,1011.6900024414062000,40.9073791503906250,571.0930786132812000,4.1415858268737790,55.4922904968261700,55,100,101,78,82,15478,0,0,0,0,2147121929,2147770880,2147574464,2147569124,285,2,13,63433
1355058390,5809,1010.3499755859375000,40.0549888610839840,570.7329101562500000,4.1527819633483890,55.6179389953613300,55,100,101,77,83,15479,0,0,0,0,2147118509,2147771373,2147575250,2147570038,3131,2,13,36136
1355061990,5811,1010.0499877929688000,40.3770294189453100,570.8203735351562000,4.1500630378723145,55.5695114135742200,55,99,101,77,82,15481,0,0,0,0,2147125284,2147768512,2147574491,2147571062,155,3,13,61783
1355065590,5810,1008.5100097656250000,40.4613304138183600,571.3336181640625000,4.1341109275817870,55.5575599670410160,55,100,101,77,83,15482,0,0,0,0,2147122724,2147774171,2147581622,2147572077,358,2,13,11587
1355069190,5809,1005.3599853515625000,40.5248985290527340,571.2916259765625000,4.1354160308837890,55.5486183166503900,55,99,100,79,83,14420,0,0,0,0,2147122578,2147766573,2147576091,2147572900,723,2,13,45333
1355072790,5812,1008.6400146484375000,40.5937805175781250,571.9321899414062000,4.1155009269714355,55.5505981445312500,54,102,100,78,83,14421,0,0,0,0,2147119552,2147770642,2147578221,2147569792,3241,2,13,52072
1355076390,5811,1006.9199829101562000,40.6534004211425800,571.8925170898438000,4.1167368888854980,55.5412712097168000,55,97,100,77,81,14414,0,0,0,0,2147122395,2147777270,2147577234,2147570212,3301,2,13,42253
1355079990,5808,1008.3800048828125000,42.0590705871582000,572.0432739257812000,4.1120471954345700,55.3319892883300800,55,98,99,77,82,14414,0,0,0,0,2147125988,2147769590,2147572717,2147569042,3419,2,13,15313
1355080555,5810,1002.3200073242188000,41.7984695434570300,572.0048217773438000,4.1132431030273440,55.3685111999511700,56,99,102,77,82,14415,0,0,0,0,2147125193,2147766573,2147573869,2147566546,3516,2,13,8
